Wind_Speed
11 12 12 13 13 14 15 16 16 14 14 16 16 16 17 17 18 19 19 19 19 18 16 14 13 12 12 13 12 12 13 13 14 14 14 14 15 16 16 17 17 18 19 20 20 21 21 22 22 23 23 22 22 24 25 25 27 28 30 30 30 30 30 30 31 30 27 25 24 25 26 27 27 27 27 28 28 28 27 28 30 31 31 32 33
11 12 12 13 14 14 16 16 15 14 14 16 16 17 17 17 17 18 19 19 18 18 17 15 14 13 13 14 14 14 15 15 15 14 14 14 14 15 15 16 17 18 18 20 21 22 22 22 23 24 24 23 23 24 25 25 26 28 29 30 31 31 30 30 31 32 30 28 27 26 26 27 28 27 27 28 28 28 28 29 30 31 31 31 31
11 12 12 13 14 15 16 16 15 14 15 15 16 17 17 17 17 18 18 18 17 17 16 16 15 14 14 14 15 15 16 17 17 17 15 15 15 15 15 14 15 16 17 18 20 22 23 23 23 24 24 24 23 24 25 25 26 27 29 29 30 30 30 31 32 33 32 29 28 28 27 27 28 29 29 29 28 28 28 29 30 31 31 30 29
12 12 13 14 14 15 16 16 15 15 15 15 16 17 17 18 17 17 17 17 17 16 16 16 15 15 14 15 15 16 16 17 18 18 17 16 16 16 15 15 14 15 16 17 18 20 21 23 24 24 24 23 23 24 26 25 25 26 27 27 28 28 28 29 30 32 31 30 28 27 28 27 28 28 30 31 30 29 29 29 29 30 30 29 28
13 13 14 15 15 16 16 15 15 15 15 15 15 16 17 18 17 17 16 17 16 15 15 15 15 15 15 15 15 16 16 17 17 18 18 18 17 17 17 16 16 16 16 17 17 17 19 21 23 23 23 22 23 24 25 25 25 26 27 26 25 24 24 25 27 28 29 29 28 27 27 28 28 28 30 32 31 29 29 29 28 29 29 30 28
13 14 14 15 15 15 15 15 15 15 15 15 15 16 17 17 17 16 16 16 16 16 16 15 15 15 16 16 16 16 16 16 17 18 18 18 18 18 18 17 17 17 18 18 18 17 17 18 20 20 20 20 21 23 24 24 24 25 26 26 24 22 21 23 24 25 27 29 29 27 26 27 28 28 29 31 32 30 29 28 28 28 28 29 28
14 14 14 14 15 15 15 15 16 16 15 15 15 16 17 17 17 16 16 16 16 16 16 16 16 16 16 16 16 17 17 17 17 18 18 18 18 18 18 18 18 18 18 19 19 18 17 17 17 17 17 18 20 21 21 21 23 24 25 26 24 22 22 23 24 26 27 28 28 27 26 27 28 28 28 30 31 30 28 28 27 27 27 28 27
14 14 14 13 14 14 15 15 16 16 16 15 15 16 16 17 17 17 17 16 16 17 17 17 18 18 17 17 17 17 17 17 17 18 18 19 19 18 19 19 18 17 17 18 20 20 18 17 16 15 16 16 17 18 19 21 22 24 24 24 24 23 24 25 26 27 28 28 29 28 27 27 28 29 28 29 30 28 27 27 27 26 27 28 29
14 14 13 13 13 14 15 15 16 16 16 15 16 16 16 16 16 17 17 17 17 17 18 18 18 18 18 18 18 18 18 18 18 18 19 19 19 19 19 19 18 17 17 17 19 20 19 17 16 15 13 14 15 17 19 21 22 23 23 23 23 24 25 26 27 27 27 28 28 27 27 27 27 28 29 28 28 27 28 28 27 26 28 29 30
15 15 14 14 14 15 15 16 16 16 16 15 16 16 16 16 16 17 17 18 18 19 19 19 19 18 18 18 18 18 18 19 19 19 19 20 20 20 20 19 18 17 16 16 18 20 20 18 16 14 13 13 16 18 19 21 21 22 23 23 23 24 25 25 26 26 27 27 26 26 27 26 26 28 28 27 27 27 28 28 27 27 27 27 27
15 15 15 15 15 15 16 16 16 15 15 15 16 16 16 16 16 17 17 18 19 20 21 21 20 20 19 19 18 18 18 19 19 19 19 21 21 22 20 19 18 18 16 16 17 19 20 19 17 15 14 15 17 19 21 22 22 23 23 24 24 24 24 24 24 25 26 26 25 26 26 26 25 26 27 27 26 26 27 27 27 27 26 26 25
15 15 16 16 16 16 16 16 16 15 15 16 16 16 16 17 17 17 18 19 20 21 21 21 21 21 20 20 20 19 19 19 20 20 20 21 22 22 21 20 20 19 17 16 17 18 19 19 18 17 16 16 17 19 22 23 24 24 24 24 25 25 24 24 24 24 24 24 24 24 23 24 25 26 26 26 25 25 26 26 26 26 26 25 25
16 16 17 17 17 18 18 17 17 16 16 16 16 17 17 17 17 17 18 19 20 21 21 22 22 22 21 21 21 20 20 20 20 20 20 21 22 22 22 22 21 19 18 17 18 19 19 18 18 17 17 18 18 19 21 22 24 25 25 25 25 25 24 23 22 23 23 23 23 22 21 21 23 25 25 26 25 25 25 24 24 25 25 24 24
16 17 17 17 17 18 18 18 18 18 17 17 17 17 18 18 18 18 18 19 20 21 21 21 22 22 22 22 22 21 21 21 21 20 20 21 21 22 22 23 22 20 19 18 18 19 19 19 18 18 18 18 19 20 21 22 22 23 24 25 25 25 23 21 20 20 21 22 22 22 22 22 23 23 22 23 23 23 23 22 22 23 23 23 23
16 17 17 17 18 18 18 18 18 19 18 18 18 18 18 18 18 18 18 18 19 20 21 21 22 22 22 22 23 22 22 22 21 21 20 20 21 22 22 23 22 22 20 19 19 19 20 19 19 18 18 18 19 20 21 22 22 22 23 24 25 25 24 21 19 19 20 21 22 23 23 23 23 22 20 20 20 20 19 20 21 21 22 21 22
17 17 16 16 17 18 18 18 18 19 19 19 18 18 19 19 19 18 18 18 19 20 21 22 22 22 23 23 23 23 23 23 22 22 21 21 21 22 22 22 23 23 22 20 20 20 20 20 19 19 19 18 19 20 21 21 22 22 23 24 25 26 24 21 20 20 21 21 22 23 25 25 24 23 20 19 18 18 19 20 21 22 22 22 22
18 17 16 16 16 18 19 19 19 19 19 19 19 19 19 20 20 19 19 20 21 21 22 22 22 22 23 23 23 23 23 23 23 23 23 22 22 22 22 21 22 23 23 22 20 20 20 20 20 20 19 18 18 19 19 20 20 22 23 25 26 26 24 22 21 21 22 22 22 24 25 25 25 24 21 19 18 18 19 21 22 22 22 22 23
18 18 17 17 17 17 19 20 21 21 21 20 21 21 21 21 21 21 21 21 22 22 22 22 22 22 22 23 23 24 23 23 23 23 23 23 22 22 21 21 21 23 23 23 21 21 21 21 21 20 19 19 18 18 18 19 19 20 22 24 27 27 25 23 21 21 21 21 22 24 24 24 27 26 22 18 17 17 18 19 20 21 20 20 21
17 18 18 18 18 18 19 20 21 22 22 22 22 22 21 21 21 21 21 22 22 23 22 22 21 22 22 23 23 24 24 24 24 23 22 22 22 22 21 21 21 22 23 23 22 21 21 21 21 21 19 19 19 18 18 19 19 20 20 21 24 27 27 25 22 20 19 18 20 21 21 22 24 22 17 14 14 14 15 16 17 17 16 16 16
17 17 18 18 19 19 19 20 20 22 22 22 22 22 22 21 21 22 22 22 22 22 22 22 21 22 23 23 23 24 24 24 24 24 23 23 22 21 21 21 20 21 22 22 22 22 21 21 21 21 20 20 19 19 19 19 19 19 19 19 20 22 25 24 22 20 18 17 16 14 13 14 14 11 10 10 11 11 12 13 14 14 13 12 11
17 17 18 18 19 19 20 20 20 21 22 23 22 22 22 22 22 22 22 22 22 22 22 22 21 22 23 23 23 24 24 25 25 25 24 23 22 21 21 21 20 20 20 21 21 21 21 21 21 21 21 21 20 19 19 19 18 17 18 18 17 17 20 21 21 19 16 14 12 10 10 10 8 7 6 7 8 9 10 11 12 13 12 11 10
18 18 18 18 19 19 20 20 20 20 21 22 23 22 22 22 22 22 23 23 22 22 22 22 22 22 22 23 23 23 24 25 25 24 24 23 22 21 20 20 20 19 18 19 20 20 20 20 20 20 21 22 20 19 19 18 17 16 16 16 16 16 17 18 18 18 16 13 11 11 10 8 8 6 6 6 7 8 10 10 11 12 12 12 12
18 18 19 19 20 20 20 20 20 20 20 22 22 22 22 22 22 22 23 23 23 23 23 23 23 23 22 23 23 24 24 25 25 25 24 23 22 20 20 19 18 17 17 17 18 19 19 19 19 19 21 21 20 19 18 17 15 15 15 15 15 15 16 16 16 16 15 14 12 12 10 9 8 7 6 6 6 8 9 10 11 11 11 12 12
19 19 20 20 20 20 20 20 20 20 20 21 21 22 22 22 23 23 23 23 23 24 24 24 24 24 23 23 23 24 24 25 25 25 25 23 22 20 19 19 18 17 17 16 17 17 18 18 18 18 19 19 19 18 17 15 14 13 13 13 14 14 14 15 16 16 16 15 13 13 13 12 11 9 8 7 6 7 8 9 9 9 9 10 11
19 19 20 21 21 21 20 20 20 20 20 20 20 21 21 22 23 24 24 24 23 24 24 24 24 24 24 24 23 23 24 24 24 24 24 23 22 20 19 19 19 19 18 17 17 17 17 18 17 17 17 17 17 18 16 13 12 11 11 12 15 13 12 13 15 16 16 15 13 11 12 12 12 11 10 9 7 8 8 8 9 8 8 7 8
19 19 20 21 21 21 20 20 20 20 20 20 20 20 21 21 22 23 24 24 23 23 24 24 24 24 24 24 24 23 23 23 23 23 23 23 22 21 20 19 19 19 19 18 17 16 16 17 17 17 16 15 16 16 15 12 10 9 9 10 13 14 12 10 11 14 15 15 14 13 12 13 14 14 12 11 10 10 9 9 9 8 6 5 3
19 20 20 21 21 22 21 20 20 20 20 20 20 20 20 21 21 22 23 23 23 23 24 24 25 25 25 24 24 23 23 23 23 23 23 22 22 21 21 20 19 18 18 18 18 17 16 16 16 16 15 15 15 15 13 11 9 8 8 10 12 14 14 11 9 11 14 15 15 16 16 16 16 16 15 14 14 12 11 10 10 9 8 6 4
20 20 21 22 22 22 22 21 21 20 20 20 20 20 20 21 21 21 22 22 23 24 24 24 26 26 23 22 23 24 24 23 24 24 23 23 22 21 21 21 20 19 17 17 18 17 16 16 15 15 14 14 14 13 13 11 10 9 11 13 14 15 15 14 11 11 14 16 17 17 18 19 19 20 19 18 18 16 14 12 12 11 10 8 7
20 21 21 22 22 22 22 22 22 21 20 20 19 20 20 20 20 19 20 21 22 23 23 24 26 25 23 23 25 26 25 24 24 24 24 24 24 22 21 21 21 20 18 17 17 18 17 16 15 13 13 13 13 13 13 13 11 11 12 15 16 17 17 18 16 13 14 17 18 18 19 20 21 23 22 21 21 19 16 14 14 13 11 10 9
20 21 21 21 22 22 23 23 23 22 21 20 19 19 19 20 19 19 18 19 21 22 22 23 24 24 24 23 24 25 26 25 25 25 25 25 25 24 22 21 21 21 20 18 17 18 17 16 15 13 13 13 13 13 14 13 12 12 13 14 16 17 17 19 21 19 15 16 18 18 18 20 21 20 18 16 16 17 16 16 16 14 12 11 10
20 21 21 21 22 22 23 23 23 22 22 21 21 20 19 19 19 19 19 20 20 22 23 23 23 24 25 24 22 23 25 26 26 26 26 26 26 25 24 23 22 21 21 20 18 18 18 17 15 14 13 12 13 13 14 13 12 12 13 13 14 14 14 16 19 19 17 18 19 20 20 21 20 19 15 13 13 15 16 16 16 15 13 11 10
20 21 22 22 22 23 23 24 23 23 22 22 22 21 20 19 18 19 20 21 21 22 22 23 23 24 25 25 24 23 24 26 26 26 26 26 26 25 24 23 23 22 22 21 19 18 18 17 16 15 13 12 12 12 12 12 12 12 13 15 14 12 12 14 17 17 17 18 21 24 25 24 22 20 18 16 15 15 16 16 16 15 13 11 10
21 21 22 22 23 23 24 24 24 24 23 22 22 21 20 20 19 19 19 20 21 21 22 22 23 24 25 26 26 25 25 25 25 25 25 25 26 26 25 24 24 24 23 22 20 19 18 17 17 16 14 12 11 10 10 11 12 12 13 15 15 14 15 18 19 18 16 15 17 20 22 23 22 20 18 16 15 16 16 16 16 15 13 12 11
21 21 22 23 23 24 24 25 25 24 23 22 22 21 21 21 21 21 20 20 20 20 21 22 23 24 24 25 26 26 25 25 25 25 26 26 27 27 26 26 25 25 25 23 21 20 19 18 18 17 14 11 10 10 9 11 13 13 14 14 15 16 18 19 20 18 17 16 15 15 15 16 16 14 13 13 14 15 15 15 16 15 14 13 12
20 21 22 23 24 25 25 25 25 24 23 22 22 22 22 22 23 23 22 21 21 20 20 21 21 22 23 24 25 25 25 26 26 26 26 27 27 27 27 28 28 28 26 24 22 21 20 18 18 18 15 11 9 9 9 10 13 15 17 17 17 18 19 20 19 18 17 15 13 11 11 11 11 11 12 13 14 15 15 15 15 15 15 14 14
20 20 22 24 25 25 25 25 25 24 23 23 23 22 23 23 23 23 23 22 23 22 21 20 20 21 21 23 24 25 26 26 26 26 26 26 26 27 28 29 29 30 28 24 22 22 21 20 19 18 15 11 9 9 9 9 11 14 17 18 19 19 19 19 18 17 15 13 12 11 11 11 12 12 12 13 14 15 15 15 15 15 15 15 14
20 20 22 24 25 26 26 26 26 25 24 23 23 23 24 24 24 24 24 23 23 23 22 21 21 21 21 22 24 25 27 27 27 26 26 26 26 28 29 28 28 29 28 23 21 21 22 20 19 18 15 12 10 9 10 10 11 12 13 14 15 16 16 15 15 14 12 12 12 12 12 12 13 14 15 15 15 15 15 15 16 15 15 15 14
20 20 21 23 25 26 26 26 25 25 25 25 24 24 25 24 24 25 25 24 24 24 23 23 22 22 21 22 23 24 26 27 27 26 26 26 26 28 28 27 26 26 25 22 20 21 21 20 19 18 15 13 11 10 11 11 12 12 12 12 12 12 12 11 11 10 10 11 12 12 13 14 15 16 17 17 17 16 16 15 15 15 15 15 14
21 21 22 23 25 25 25 25 25 25 25 26 26 25 24 24 25 25 25 24 25 25 25 24 23 22 22 23 23 24 25 26 25 25 26 26 26 27 27 26 24 24 23 21 21 22 21 20 19 18 16 14 12 11 12 12 13 13 13 12 12 11 11 10 10 10 10 11 12 13 14 15 16 17 17 17 17 16 16 16 16 15 15 14 14
22 21 22 24 24 24 24 25 25 26 26 27 26 25 25 25 25 25 25 25 25 25 25 24 23 23 23 24 25 25 26 26 25 24 24 26 26 26 26 25 24 23 22 21 20 21 21 19 19 19 17 15 13 12 12 13 14 14 14 13 13 12 12 12 12 12 12 12 13 15 16 16 17 17 17 17 17 16 16 16 16 15 15 14 14
23 22 22 23 24 23 24 25 25 26 27 27 25 25 25 25 25 25 26 26 26 25 25 25 24 24 25 26 27 27 26 25 24 24 24 25 26 26 26 25 24 23 22 21 21 22 21 20 19 19 18 16 14 13 13 13 14 15 15 15 14 14 14 14 14 14 14 15 15 16 16 17 17 17 17 17 17 16 16 15 15 14 14 13 13
24 23 22 23 23 24 24 25 26 27 27 26 25 25 25 25 26 27 27 26 26 26 27 27 26 26 26 27 28 28 26 25 24 24 24 25 26 26 26 25 23 23 22 22 22 22 21 20 19 19 18 17 16 15 14 14 14 14 15 15 16 16 16 16 16 16 16 16 17 17 17 17 17 17 17 17 17 16 15 15 14 14 13 13 13
24 23 22 23 23 24 25 26 26 27 27 26 26 25 26 26 27 28 27 26 26 27 29 29 29 28 28 28 28 28 27 25 24 25 25 25 26 26 26 24 23 23 23 23 21 19 20 20 19 18 18 19 18 17 16 15 15 15 14 15 16 17 17 17 17 17 17 17 17 18 17 18 18 18 17 17 17 16 16 16 15 15 14 14 13
24 24 23 23 23 24 26 27 27 27 27 27 26 26 26 28 28 28 27 27 28 29 31 31 31 30 29 29 29 28 27 25 25 25 25 26 26 26 25 24 24 24 23 22 20 18 17 18 18 18 19 20 20 20 19 17 16 16 15 15 15 16 17 18 19 19 19 18 18 18 18 19 19 18 18 18 17 17 16 16 16 16 16 15 15
24 24 24 23 23 24 27 28 28 28 28 28 27 26 27 28 28 28 28 29 30 31 32 32 32 30 29 29 28 27 26 25 24 25 25 25 26 25 24 23 24 24 23 22 21 19 18 18 18 19 20 21 21 22 21 19 18 18 17 17 16 16 17 18 19 20 20 20 20 20 20 20 20 19 19 18 18 17 17 17 17 17 16 16 15
23 24 24 23 24 25 27 28 29 29 29 28 27 28 28 28 28 28 29 30 31 32 33 32 31 29 29 28 27 27 26 25 24 23 24 24 24 24 24 25 26 25 25 24 23 22 20 19 19 20 21 22 23 24 23 22 21 20 19 19 18 17 17 18 20 20 21 21 21 21 21 21 21 20 20 19 19 18 19 19 18 18 17 17 17
22 23 24 24 24 25 27 29 29 29 29 28 29 29 29 28 28 29 29 30 32 33 32 31 29 28 28 27 26 26 25 23 22 22 22 22 23 24 24 25 26 25 25 25 25 23 21 21 21 22 22 23 24 24 24 24 23 22 21 21 20 19 19 19 20 21 21 21 21 21 22 22 22 21 21 21 20 20 20 19 19 18 18 18 18
23 23 24 24 25 26 27 28 29 29 29 29 30 29 29 28 28 29 30 31 32 31 30 29 28 28 27 26 25 24 24 22 21 21 21 21 22 23 24 24 23 21 21 22 23 23 23 22 22 23 23 24 24 24 24 25 25 23 23 22 21 20 20 20 20 20 21 21 21 21 22 22 22 22 22 22 21 21 21 20 19 19 19 20 19
25 25 25 25 25 26 27 29 29 29 29 29 29 28 28 28 28 29 30 31 30 29 28 27 27 27 25 24 23 23 23 23 22 21 21 21 21 22 22 22 20 19 17 18 19 21 22 23 23 23 24 24 24 24 25 26 25 25 24 23 21 20 19 18 18 18 19 19 19 20 21 21 21 21 22 22 22 21 21 21 20 20 21 21 20
27 28 27 27 26 27 28 29 29 29 29 29 28 27 27 28 28 28 29 30 29 28 27 26 26 25 23 22 21 22 22 23 22 22 22 22 22 22 22 21 20 19 18 19 21 21 20 20 22 24 25 25 26 27 28 27 27 26 24 23 21 19 18 17 16 16 15 14 14 16 18 20 21 22 22 23 22 22 21 21 21 21 21 21 20
28 30 30 30 29 29 29 29 28 28 27 27 27 27 27 27 27 28 29 29 28 26 25 24 24 23 21 21 20 21 21 22 22 22 22 22 22 22 22 21 21 21 21 21 22 22 21 21 21 23 25 26 26 26 27 27 26 26 26 24 22 20 19 17 15 14 13 11 10 10 12 16 19 21 22 21 20 20 20 21 22 22 22 21 20
Wind_Direction
308 309 313 315 313 311 312 315 321 327 322 320 330 335 333 331 327 324 323 324 324 323 319 312 307 306 305 304 306 308 309 308 306 304 301 296 291 287 286 285 283 282 280 278 275 272 268 264 263 264 263 262 260 259 258 256 254 253 252 252 251 251 250 251 253 254 249 245 244 245 248 250 251 252 253 253 250 248 245 245 246 245 245 246 247
309 309 310 311 310 309 310 312 318 324 323 322 329 333 332 329 325 322 321 321 322 323 318 311 306 304 304 303 305 308 310 309 307 304 300 298 294 290 286 284 283 282 281 280 278 277 273 268 264 262 261 260 261 261 260 259 257 255 253 252 252 252 252 251 252 255 252 246 245 246 246 249 251 252 253 253 252 251 248 247 248 248 247 248 250
306 305 306 308 308 307 308 312 316 322 323 325 329 331 330 327 324 321 320 320 322 323 319 312 307 304 303 303 304 308 311 310 309 306 302 300 298 294 291 289 286 284 281 280 278 277 275 273 268 263 260 259 259 260 260 259 259 259 256 254 253 252 253 253 253 255 255 249 245 246 247 248 250 251 253 253 253 253 252 250 249 250 250 250 250
302 302 303 303 304 304 306 310 315 318 321 324 327 328 328 326 322 320 320 320 322 323 321 315 310 307 305 304 304 307 309 309 308 306 304 301 300 299 297 297 296 295 290 285 280 277 275 273 270 267 263 260 258 259 260 260 261 262 258 254 254 254 254 256 257 257 259 256 249 247 248 250 250 250 252 253 254 254 253 252 251 250 251 251 249
300 299 299 298 298 300 303 308 312 314 318 321 324 326 326 325 322 320 320 321 321 322 322 320 316 312 307 305 304 305 306 306 305 304 303 301 299 299 300 302 304 306 304 300 293 285 278 273 270 269 266 263 259 257 259 259 259 260 258 254 254 255 256 258 260 259 259 259 255 250 250 251 250 249 250 252 253 253 254 254 252 250 250 251 250
303 299 297 296 296 297 300 305 308 311 315 318 322 325 325 324 323 321 320 320 321 321 321 321 319 316 312 307 305 303 303 302 301 301 301 300 298 298 300 303 306 309 310 308 304 297 288 278 272 269 267 264 260 258 259 259 256 256 256 255 254 256 259 261 261 259 257 258 258 254 251 251 250 250 251 254 254 253 254 255 254 252 250 250 251
310 304 300 297 297 298 301 303 305 308 312 316 321 324 323 323 324 324 323 321 320 320 320 321 320 317 313 309 306 303 301 300 299 298 298 298 297 297 298 301 304 308 311 310 308 304 297 288 279 273 267 261 258 257 257 256 253 251 251 253 253 255 257 259 260 260 258 258 259 258 255 252 251 251 252 255 256 255 255 256 255 253 252 251 251
315 310 305 301 300 300 300 302 304 306 310 315 320 321 321 323 326 327 326 323 321 320 318 318 317 315 312 309 306 304 302 300 298 297 297 296 296 294 294 297 301 305 309 310 309 306 302 296 288 280 272 265 261 258 254 250 246 245 247 249 252 254 255 257 260 262 262 261 262 262 259 255 254 253 253 255 258 257 255 254 253 251 252 252 250
315 314 310 307 305 303 302 304 304 305 309 315 318 317 319 323 326 328 328 326 325 322 318 315 312 310 310 309 307 304 302 301 299 298 296 294 292 290 288 290 295 300 305 307 307 306 303 299 293 288 282 275 267 260 256 252 247 243 243 245 249 254 256 258 260 262 263 262 263 265 263 259 256 254 253 254 256 256 253 252 251 250 251 252 251
315 316 314 309 307 305 305 306 305 306 309 312 314 316 318 322 325 326 327 328 328 325 320 316 312 308 307 306 306 304 303 301 300 299 297 292 287 284 283 285 289 294 299 303 304 304 303 300 295 290 284 274 266 260 258 256 251 244 239 239 245 254 258 260 262 263 263 262 263 264 264 262 256 251 252 254 253 252 251 252 252 252 252 253 251
316 318 316 312 309 306 306 307 307 309 310 311 314 316 319 321 322 324 327 329 329 326 322 319 315 312 309 306 305 305 304 303 300 299 297 292 287 284 284 284 284 288 294 297 299 300 302 302 299 294 286 275 268 264 262 258 252 245 240 237 243 253 259 261 264 266 266 265 263 264 266 266 258 250 250 252 252 251 251 252 253 254 254 254 251
318 318 317 315 312 310 310 311 312 313 313 314 316 318 319 320 320 323 327 328 328 325 322 320 318 317 314 311 308 306 305 304 301 300 298 294 291 287 283 280 280 283 288 291 293 295 298 301 302 300 295 286 277 270 266 262 256 249 245 243 246 254 261 264 266 268 269 269 266 265 269 267 258 250 248 250 251 251 251 253 254 254 254 253 250
317 316 316 315 314 312 312 313 314 316 317 317 318 317 317 316 318 322 326 326 325 323 322 321 320 319 317 315 313 310 307 305 303 301 299 297 294 288 280 276 276 278 283 286 287 289 292 297 300 301 299 294 288 280 273 267 261 254 250 248 251 258 264 266 267 268 270 271 267 264 265 263 253 247 247 248 250 251 252 252 253 253 253 251 249
312 312 312 313 313 312 311 312 314 315 316 316 316 315 314 314 317 321 323 323 323 322 321 321 320 320 319 318 317 315 311 308 305 303 301 299 295 288 279 274 273 275 277 280 281 284 288 292 295 298 299 297 294 288 281 275 267 259 254 251 253 259 264 264 265 267 268 269 265 260 259 258 251 245 244 245 248 250 250 251 252 252 253 252 249
310 309 310 311 311 311 310 310 311 312 313 314 313 313 313 314 316 318 320 321 322 321 321 320 320 320 320 320 320 318 315 312 308 306 304 301 298 291 282 275 273 273 273 274 276 279 283 287 290 293 296 298 298 295 289 283 274 263 256 253 255 259 260 260 263 266 266 265 262 256 254 255 252 246 242 242 244 247 249 251 253 254 254 253 251
310 309 310 310 311 310 310 309 308 308 309 310 310 310 311 312 314 316 317 318 320 321 320 319 319 320 321 321 321 320 318 315 311 308 305 302 300 296 288 279 274 272 271 271 272 275 278 282 286 289 293 296 297 297 295 290 280 268 259 256 257 259 259 259 263 266 266 263 259 253 250 251 251 246 241 241 245 249 252 254 256 257 258 257 255
310 311 311 311 311 310 309 308 307 306 306 305 305 307 308 310 311 313 314 316 319 320 320 319 318 318 319 320 321 321 320 316 312 309 306 304 302 299 293 284 277 272 271 270 270 271 275 278 282 287 291 294 295 296 296 293 287 275 263 257 257 259 260 261 264 268 269 266 263 257 251 248 247 243 240 242 247 251 255 256 257 259 259 258 257
311 312 313 313 312 311 309 308 306 305 304 303 303 304 306 307 308 310 312 314 317 320 320 319 318 317 318 319 320 322 322 318 314 310 307 306 304 300 296 289 281 274 271 270 269 268 271 274 278 283 288 292 293 293 292 291 288 281 270 259 255 256 259 260 263 268 271 268 264 261 254 248 244 239 235 239 245 248 252 255 256 257 258 258 258
313 313 313 314 314 312 309 306 304 303 302 302 301 303 304 305 306 307 310 313 316 318 319 318 318 318 317 317 319 321 322 321 318 315 311 308 305 302 297 292 285 277 273 271 270 268 269 271 275 279 285 289 290 290 288 287 286 284 278 268 258 254 254 256 259 263 268 271 269 262 253 247 243 235 227 232 241 246 249 253 255 256 257 258 260
317 313 313 313 313 312 309 305 301 300 300 300 300 301 302 303 303 305 307 311 315 317 317 318 319 319 317 316 318 320 322 322 322 320 317 313 309 303 297 292 286 279 274 272 271 270 269 270 273 277 283 286 288 288 287 287 287 286 283 277 265 255 252 251 252 256 265 276 274 255 235 233 231 219 214 226 235 240 245 250 252 253 255 258 262
320 316 315 314 312 310 308 304 300 297 297 298 298 300 300 301 302 303 306 309 313 315 316 316 318 319 319 318 318 319 321 322 323 322 320 316 312 305 298 292 288 283 277 273 272 271 270 271 272 275 279 283 286 287 286 286 287 287 284 277 266 255 251 249 247 250 262 272 258 218 199 207 210 200 208 224 233 240 247 252 254 256 258 261 264
322 321 319 317 314 310 306 303 300 296 295 296 297 298 298 299 301 303 306 309 311 313 314 314 316 318 319 319 319 319 319 321 322 322 320 317 314 310 303 297 292 287 280 275 273 273 271 271 271 273 276 281 285 286 285 286 288 288 283 273 259 247 246 248 246 246 255 262 242 208 197 205 205 199 210 224 238 250 256 260 263 263 263 261 260
323 323 322 319 315 310 306 303 301 298 296 296 296 296 296 297 299 302 304 307 310 311 312 312 314 316 317 319 319 319 319 319 321 322 321 319 316 314 310 304 299 293 286 281 277 275 273 272 271 272 275 279 283 284 285 288 290 289 284 270 252 241 243 247 246 243 246 249 232 207 204 216 217 216 226 236 250 262 265 267 269 268 265 260 252
321 322 321 318 314 310 307 304 302 300 297 296 296 296 296 297 297 298 300 303 307 309 309 310 312 313 315 316 317 318 318 318 319 321 321 318 315 313 312 310 308 303 297 289 283 279 276 272 270 271 274 277 279 280 284 288 288 288 282 262 242 239 245 246 243 240 242 244 231 207 203 216 224 229 238 249 264 273 273 272 271 270 268 260 249
319 319 318 314 311 309 307 305 303 301 299 297 297 297 296 296 296 296 298 302 305 306 306 307 309 310 311 313 314 316 317 316 316 317 317 315 311 310 311 311 311 309 304 297 290 284 279 275 272 271 272 274 276 278 282 286 285 285 281 257 235 233 245 248 242 238 238 243 240 218 206 216 228 236 243 250 261 268 270 268 267 268 268 262 252
316 316 314 311 309 308 307 306 304 302 301 299 298 297 296 296 295 295 296 299 301 302 301 304 305 306 307 310 312 314 314 314 313 313 313 312 308 307 308 308 307 307 306 301 296 289 284 280 275 272 271 271 273 274 277 283 283 281 279 259 239 236 244 251 247 240 235 235 238 233 225 228 235 240 244 250 257 264 265 262 258 255 251 247 247
315 315 312 310 308 307 306 305 304 303 302 301 300 299 297 296 295 295 295 297 298 297 299 302 302 301 302 306 309 311 313 312 311 309 309 308 306 304 304 305 304 304 305 303 299 295 290 283 276 271 268 265 265 267 271 276 277 267 253 242 237 236 240 245 248 242 233 228 228 230 232 236 240 243 247 253 257 260 262 259 254 245 234 223 216
315 314 311 308 306 304 304 304 305 304 303 302 302 301 300 299 299 299 298 298 297 297 299 301 300 299 303 307 307 309 311 311 310 309 307 306 305 302 301 301 302 302 303 304 302 299 295 289 281 274 266 260 258 261 263 264 264 257 244 238 236 236 236 237 236 232 225 220 219 223 230 237 243 246 249 252 256 258 257 254 251 243 231 220 213
312 311 308 304 302 301 302 304 305 305 305 304 303 303 302 303 303 303 302 301 300 300 300 301 300 302 307 308 307 308 309 308 307 308 307 306 305 303 300 299 299 300 301 303 304 302 299 295 291 281 266 256 253 254 256 257 256 251 244 241 242 245 242 239 240 239 226 217 218 225 232 239 246 250 252 254 256 256 252 247 246 241 231 222 217
308 308 305 301 300 300 301 303 304 305 304 303 302 302 303 304 305 305 304 303 303 303 303 304 304 303 303 303 304 304 305 304 304 305 305 305 304 303 301 298 297 298 299 300 302 302 300 298 295 288 272 258 250 247 250 254 253 248 243 239 242 249 250 248 251 255 246 230 229 234 239 244 250 255 257 257 252 246 242 240 239 235 228 222 219
305 305 303 300 299 299 300 302 304 304 302 302 301 301 302 304 305 306 306 306 306 306 306 306 305 303 302 301 300 298 298 301 302 303 304 305 304 302 300 297 296 296 296 296 297 298 299 297 294 289 280 264 251 244 245 248 248 245 240 235 236 246 254 252 254 259 256 247 245 248 250 253 256 258 261 261 251 240 234 233 230 227 223 220 218
302 303 302 299 297 298 300 303 303 302 300 300 300 300 301 303 304 305 307 308 308 308 308 307 305 303 303 303 302 300 299 300 300 301 304 306 305 304 300 296 294 293 292 292 293 293 295 296 293 289 283 272 258 247 242 241 238 232 227 224 225 232 242 246 249 255 257 252 249 249 251 254 255 257 259 259 249 238 231 225 220 218 216 214 212
301 302 302 299 296 297 299 301 301 299 298 298 298 300 301 303 304 305 306 307 307 308 309 307 304 303 303 303 304 304 303 300 299 300 301 303 304 305 302 299 295 290 287 288 289 291 293 295 293 287 283 279 272 258 239 229 227 225 227 231 232 232 237 244 250 254 257 257 253 249 248 249 250 252 251 245 236 231 225 217 212 211 209 207 205
299 301 302 299 297 296 297 298 297 295 296 297 298 300 302 304 306 307 306 306 306 307 307 305 303 303 303 303 303 303 302 299 297 296 296 299 301 303 303 302 297 290 285 283 284 286 289 292 291 286 280 279 280 269 242 225 223 226 230 236 239 238 239 245 250 254 257 260 258 249 242 240 238 235 229 223 221 220 214 207 205 206 204 202 201
297 301 303 301 299 298 297 296 293 293 295 298 300 302 304 305 306 307 308 308 308 308 307 304 302 302 303 303 303 302 299 297 295 295 296 297 299 299 299 297 293 290 287 283 280 281 282 285 286 283 279 275 274 269 253 233 225 226 230 234 237 240 242 245 250 254 256 254 247 237 229 222 213 206 204 204 206 204 199 198 201 203 200 200 200
295 301 305 304 302 300 298 295 293 294 297 300 302 303 304 305 305 306 307 309 310 310 309 307 304 303 304 303 301 300 298 296 296 296 296 297 297 295 294 293 292 291 289 284 278 277 277 277 278 277 275 270 266 263 260 250 236 231 233 237 242 247 251 252 252 253 250 240 228 224 220 209 198 194 194 195 195 194 193 196 200 201 199 199 199
296 301 305 305 303 300 297 294 294 296 298 299 301 302 302 303 304 305 307 309 310 310 310 309 308 307 306 302 298 297 297 296 297 297 297 296 296 295 294 294 294 293 291 283 274 271 271 271 271 271 268 263 260 257 257 258 253 244 239 237 241 248 254 253 248 244 237 226 219 217 210 197 191 190 191 194 198 198 196 196 199 199 198 198 198
301 302 303 303 302 299 295 292 293 294 296 297 299 300 301 302 303 305 308 309 309 309 309 309 310 310 307 303 299 297 296 296 297 298 297 296 295 295 296 297 297 297 295 286 273 266 264 263 265 266 262 257 254 253 252 254 256 255 251 244 239 242 246 244 236 229 222 216 213 208 199 192 192 194 195 199 203 203 199 198 198 199 199 199 200
305 303 302 302 302 298 293 290 291 292 293 295 297 298 300 302 304 306 308 309 309 309 309 310 310 311 308 305 303 300 298 298 299 299 298 297 295 294 297 301 302 300 297 287 271 261 258 257 259 260 258 252 248 247 247 248 250 254 257 254 246 239 236 232 227 223 218 211 206 202 197 195 196 198 199 200 201 201 202 202 201 201 202 203 205
307 305 302 302 302 299 294 290 289 290 291 292 295 297 300 302 305 308 310 310 310 310 310 311 312 310 308 306 304 303 302 303 304 303 300 298 295 293 294 299 301 301 298 288 272 260 255 254 256 258 256 251 246 243 244 245 246 248 252 256 252 243 233 227 222 219 215 210 206 204 202 200 200 202 202 201 201 202 206 208 207 205 205 205 207
306 304 301 300 301 300 297 293 290 290 290 291 293 296 299 303 307 310 311 311 311 311 311 313 313 310 308 305 304 303 304 304 304 301 298 297 294 292 292 294 296 297 296 288 275 264 254 249 251 255 256 253 247 244 243 243 244 244 245 249 250 245 237 231 225 218 213 212 210 209 207 205 204 204 204 205 205 207 211 214 214 212 209 208 207
304 304 301 299 300 300 298 294 290 288 289 290 292 295 299 304 309 311 311 310 310 310 311 312 312 310 307 305 304 303 304 303 301 297 295 294 293 292 291 291 292 293 292 288 280 269 256 245 243 249 255 256 253 249 246 244 243 243 242 244 247 245 240 236 232 226 220 215 213 212 211 209 208 207 208 209 211 213 215 218 218 217 216 215 213
301 302 300 298 298 299 298 294 290 287 287 289 291 296 301 306 309 309 309 308 309 309 310 311 311 310 307 305 304 303 302 302 299 296 294 293 292 292 291 288 286 288 291 289 284 272 257 248 244 246 252 256 256 253 251 248 246 244 243 244 246 247 244 240 237 233 230 225 221 217 214 212 212 213 213 215 216 217 218 220 221 220 220 220 219
296 299 298 296 296 297 297 295 291 288 287 289 293 297 301 305 306 307 307 307 308 308 309 309 309 309 307 306 305 303 302 300 299 296 295 294 294 294 293 289 285 285 287 287 284 278 269 261 255 251 250 253 254 254 252 249 247 246 245 245 247 249 249 246 241 236 232 230 228 225 221 219 218 218 218 219 220 221 221 222 223 223 223 222 220
291 295 294 293 293 294 295 294 291 288 287 290 293 297 300 303 305 307 307 307 307 308 308 308 308 307 307 306 305 302 301 300 298 297 297 296 294 294 293 287 281 278 276 276 276 277 278 275 268 260 255 254 254 254 253 250 248 247 246 246 247 249 250 249 245 239 234 231 229 228 227 227 227 226 225 224 223 222 222 223 222 223 223 221 218
287 291 291 291 291 291 291 290 288 287 287 289 292 295 299 303 305 306 306 307 307 308 307 307 307 307 307 307 305 302 300 300 300 299 297 295 294 292 288 282 276 272 269 269 270 271 272 273 272 268 262 257 254 253 253 252 250 249 249 248 248 248 249 249 246 242 236 233 231 231 231 231 232 233 233 231 228 224 223 223 222 221 220 216 213
285 286 287 288 288 287 287 287 286 286 286 288 291 294 299 302 304 305 305 306 307 306 306 307 307 308 308 307 306 303 302 302 302 301 299 297 295 293 290 287 283 275 266 262 264 265 264 264 265 266 266 263 258 254 253 252 250 249 249 250 251 250 250 251 249 244 238 234 232 233 234 234 234 235 235 235 233 229 226 225 223 221 218 214 212
281 282 284 285 285 284 285 285 285 285 285 287 290 294 299 302 303 303 304 305 305 305 305 306 307 308 309 308 306 305 305 305 305 304 302 300 298 296 295 295 293 285 270 259 258 259 258 258 260 264 265 265 263 257 252 250 249 248 248 250 252 253 252 251 249 244 238 233 232 233 234 236 237 236 236 235 233 229 227 225 222 219 218 216 214
278 279 281 281 281 282 282 282 282 283 284 286 289 294 298 301 301 302 303 304 303 303 304 305 306 308 309 308 307 305 305 305 306 305 303 300 298 297 296 296 295 292 283 273 268 265 260 257 259 263 265 266 266 260 252 246 244 244 244 247 249 249 247 244 241 237 233 231 231 232 234 235 236 236 236 235 232 228 225 222 218 216 217 216 213
279 279 279 279 278 278 278 278 279 281 282 285 289 294 297 299 300 301 302 301 300 301 302 304 306 307 308 308 306 305 304 304 305 304 302 299 296 294 294 294 292 290 284 279 278 275 269 261 260 263 266 267 267 263 256 250 243 239 238 240 240 237 232 228 224 221 220 221 225 230 233 234 234 234 234 233 230 226 222 218 215 213 213 213 213
280 277 274 273 272 272 273 274 276 278 280 284 289 293 296 297 299 299 299 298 299 300 301 302 304 305 307 307 306 305 304 304 303 302 301 299 296 294 293 292 292 291 287 282 278 275 270 264 261 262 263 263 262 261 260 257 249 238 230 228 227 224 220 216 212 208 205 204 209 220 229 231 230 230 230 229 229 226 222 217 213 211 211 214 217
Height
3126 3125 3125 3124 3123 3122 3121 3120 3119 3118 3117 3116 3114 3112 3111 3110 3108 3107 3105 3104 3103 3102 3101 3100 3099 3098 3098 3097 3097 3096 3096 3095 3095 3094 3094 3094 3093 3093 3093 3092 3092 3091 3091 3090 3090 3091 3091 3091 3091 3091 3091 3092 3093 3093 3093 3093 3094 3094 3095 3096 3097 3098 3099 3099 3099 3101 3103 3105 3106 3106 3106 3106 3107 3108 3108 3109 3110 3112 3113 3114 3114 3115 3116 3117 3118
3125 3125 3124 3123 3122 3121 3120 3119 3118 3117 3116 3114 3113 3111 3110 3109 3107 3106 3104 3103 3102 3101 3100 3099 3097 3097 3096 3096 3095 3094 3094 3093 3093 3092 3092 3092 3091 3091 3091 3090 3090 3089 3089 3088 3088 3087 3088 3088 3088 3088 3088 3089 3089 3090 3090 3090 3091 3091 3092 3092 3093 3094 3095 3096 3096 3096 3098 3101 3103 3103 3103 3104 3104 3105 3105 3106 3107 3108 3109 3110 3111 3112 3113 3114 3115
3124 3124 3123 3122 3121 3120 3119 3118 3117 3116 3115 3113 3112 3110 3109 3107 3106 3105 3103 3102 3101 3100 3099 3098 3096 3095 3095 3094 3093 3092 3092 3091 3091 3090 3090 3090 3089 3089 3089 3088 3088 3088 3087 3086 3086 3085 3084 3084 3084 3084 3085 3086 3086 3086 3086 3087 3087 3088 3088 3089 3090 3091 3092 3092 3093 3093 3094 3097 3099 3100 3100 3101 3101 3102 3102 3102 3103 3104 3105 3106 3107 3109 3110 3111 3112
3123 3122 3122 3121 3120 3119 3118 3117 3116 3115 3114 3112 3111 3109 3108 3107 3105 3104 3102 3101 3100 3099 3098 3097 3095 3094 3093 3093 3092 3091 3090 3089 3088 3088 3087 3087 3087 3087 3086 3086 3085 3085 3085 3084 3084 3083 3082 3081 3081 3081 3081 3082 3083 3083 3083 3083 3084 3085 3085 3086 3086 3087 3089 3089 3090 3090 3090 3092 3095 3097 3097 3097 3098 3099 3099 3099 3100 3101 3101 3102 3104 3105 3106 3107 3108
3122 3121 3120 3119 3118 3118 3117 3116 3115 3114 3113 3111 3110 3109 3107 3106 3104 3103 3101 3100 3099 3098 3097 3096 3094 3093 3092 3091 3091 3090 3089 3088 3087 3086 3085 3085 3085 3084 3084 3083 3083 3082 3082 3081 3081 3080 3080 3079 3078 3078 3078 3079 3080 3080 3080 3080 3081 3081 3082 3083 3083 3084 3086 3087 3087 3088 3088 3089 3091 3093 3094 3094 3095 3096 3095 3095 3096 3097 3098 3099 3100 3101 3102 3103 3104
3121 3120 3119 3118 3117 3116 3116 3115 3114 3113 3111 3110 3109 3108 3106 3105 3104 3102 3101 3099 3098 3097 3096 3095 3093 3092 3091 3090 3089 3088 3087 3086 3085 3084 3084 3083 3082 3082 3082 3081 3080 3079 3079 3078 3078 3077 3077 3076 3076 3075 3076 3076 3077 3077 3077 3078 3078 3079 3079 3080 3081 3082 3083 3084 3084 3085 3085 3086 3087 3089 3090 3090 3091 3092 3092 3092 3092 3094 3095 3095 3096 3097 3098 3099 3101
3119 3118 3117 3116 3116 3115 3114 3113 3112 3111 3110 3109 3108 3106 3105 3104 3103 3101 3100 3098 3097 3096 3094 3093 3092 3091 3090 3089 3088 3087 3086 3085 3084 3083 3082 3081 3081 3080 3079 3079 3078 3077 3077 3076 3075 3074 3074 3073 3073 3073 3073 3073 3073 3073 3074 3074 3075 3076 3076 3077 3078 3079 3080 3081 3081 3081 3082 3083 3083 3085 3086 3087 3087 3088 3089 3088 3089 3090 3092 3092 3093 3094 3095 3096 3097
3118 3117 3116 3115 3114 3113 3113 3112 3111 3110 3109 3107 3106 3105 3104 3103 3101 3100 3099 3097 3096 3095 3093 3092 3091 3090 3089 3087 3086 3085 3084 3083 3082 3081 3080 3079 3079 3078 3078 3077 3076 3076 3075 3074 3073 3072 3071 3071 3070 3070 3070 3070 3070 3070 3070 3071 3072 3072 3074 3074 3075 3076 3077 3078 3078 3078 3079 3080 3080 3081 3082 3083 3083 3084 3085 3085 3086 3088 3088 3088 3089 3091 3091 3091 3092
3116 3115 3114 3113 3113 3112 3111 3110 3109 3108 3107 3106 3105 3104 3102 3101 3100 3099 3097 3096 3095 3093 3092 3091 3090 3088 3087 3086 3085 3083 3082 3081 3080 3080 3079 3078 3077 3076 3076 3075 3075 3074 3073 3072 3071 3070 3069 3069 3068 3067 3067 3067 3067 3067 3067 3068 3069 3069 3071 3072 3072 3073 3074 3074 3075 3075 3076 3076 3077 3078 3078 3079 3080 3081 3081 3082 3083 3084 3084 3084 3086 3087 3087 3087 3088
3115 3114 3113 3112 3111 3110 3110 3109 3108 3106 3105 3104 3103 3102 3101 3099 3098 3097 3096 3094 3093 3092 3091 3089 3088 3087 3086 3084 3083 3082 3080 3079 3078 3077 3076 3076 3075 3074 3074 3074 3073 3072 3072 3071 3069 3068 3067 3066 3066 3065 3065 3065 3064 3064 3064 3065 3065 3066 3068 3069 3069 3070 3070 3071 3071 3072 3072 3073 3074 3074 3075 3075 3076 3077 3077 3078 3079 3080 3080 3081 3082 3083 3083 3084 3085
3113 3112 3111 3110 3110 3109 3108 3107 3106 3105 3103 3102 3101 3100 3099 3098 3097 3096 3094 3093 3092 3090 3089 3088 3086 3085 3084 3083 3081 3080 3079 3077 3076 3075 3074 3073 3072 3071 3071 3071 3071 3070 3069 3069 3068 3067 3065 3064 3064 3063 3063 3063 3062 3062 3062 3062 3062 3063 3064 3065 3066 3067 3068 3068 3068 3069 3069 3070 3071 3071 3072 3072 3073 3073 3074 3075 3075 3076 3077 3078 3079 3079 3080 3081 3082
3112 3111 3110 3109 3108 3107 3106 3105 3104 3103 3102 3101 3100 3098 3097 3096 3095 3094 3093 3091 3090 3089 3087 3086 3085 3083 3082 3081 3079 3078 3077 3075 3074 3073 3072 3071 3069 3069 3069 3068 3068 3067 3067 3067 3066 3065 3064 3063 3062 3061 3060 3060 3060 3060 3060 3060 3060 3061 3061 3062 3063 3064 3065 3065 3066 3066 3066 3067 3067 3068 3068 3069 3069 3069 3070 3071 3072 3072 3073 3074 3075 3076 3076 3077 3078
3110 3109 3108 3107 3107 3106 3105 3104 3102 3101 3100 3099 3098 3097 3096 3095 3094 3092 3091 3090 3089 3087 3086 3084 3083 3081 3080 3079 3077 3076 3075 3073 3072 3071 3070 3068 3067 3066 3066 3065 3065 3065 3065 3064 3064 3063 3063 3061 3060 3059 3058 3058 3058 3057 3057 3057 3058 3058 3059 3060 3060 3061 3062 3062 3063 3063 3063 3063 3064 3064 3065 3065 3065 3066 3067 3067 3068 3069 3069 3070 3071 3072 3072 3073 3075
3109 3108 3107 3106 3105 3104 3103 3102 3101 3100 3098 3097 3096 3095 3094 3093 3092 3091 3090 3089 3087 3086 3084 3083 3081 3080 3078 3077 3075 3074 3073 3071 3070 3069 3067 3066 3065 3064 3063 3063 3063 3063 3062 3062 3062 3061 3061 3060 3059 3057 3056 3056 3055 3055 3055 3055 3056 3056 3056 3057 3057 3058 3059 3059 3059 3060 3060 3060 3061 3061 3061 3062 3062 3063 3063 3064 3065 3065 3066 3067 3068 3068 3069 3070 3071
3108 3107 3106 3105 3104 3103 3101 3100 3099 3098 3097 3096 3095 3094 3093 3092 3090 3089 3088 3087 3086 3085 3083 3081 3080 3078 3076 3075 3073 3072 3070 3069 3068 3066 3065 3064 3062 3061 3060 3060 3060 3060 3060 3060 3060 3059 3058 3058 3057 3056 3055 3054 3053 3053 3053 3053 3053 3054 3054 3054 3055 3055 3056 3056 3056 3057 3057 3057 3058 3058 3058 3059 3060 3060 3060 3061 3061 3062 3063 3064 3065 3065 3066 3066 3067
3106 3105 3104 3103 3102 3101 3100 3099 3097 3096 3095 3094 3093 3092 3091 3090 3089 3088 3087 3085 3084 3083 3081 3080 3078 3076 3074 3073 3071 3070 3068 3067 3065 3064 3062 3061 3060 3059 3058 3057 3057 3057 3057 3057 3057 3057 3056 3055 3055 3054 3053 3052 3051 3051 3051 3051 3051 3051 3052 3052 3052 3053 3054 3054 3054 3054 3054 3054 3054 3054 3055 3056 3056 3057 3057 3058 3058 3059 3060 3061 3062 3062 3063 3063 3063
3104 3103 3102 3101 3100 3099 3097 3096 3095 3094 3093 3092 3091 3090 3089 3088 3087 3086 3085 3083 3082 3081 3079 3078 3076 3074 3073 3071 3069 3068 3066 3064 3063 3061 3060 3058 3057 3056 3055 3055 3054 3054 3055 3055 3055 3054 3054 3053 3052 3052 3051 3050 3050 3049 3049 3048 3048 3049 3049 3049 3049 3050 3051 3051 3051 3051 3051 3051 3051 3051 3051 3052 3053 3053 3054 3054 3055 3056 3057 3058 3058 3059 3059 3060 3060
3102 3101 3100 3099 3098 3097 3095 3094 3093 3092 3091 3090 3089 3088 3087 3086 3085 3084 3082 3081 3080 3079 3077 3076 3074 3072 3071 3069 3067 3066 3064 3063 3061 3059 3058 3056 3055 3054 3053 3052 3052 3052 3052 3052 3052 3052 3051 3051 3050 3049 3049 3049 3048 3047 3047 3046 3046 3046 3046 3046 3046 3046 3047 3048 3048 3048 3048 3048 3047 3047 3048 3049 3050 3050 3050 3051 3052 3053 3054 3055 3055 3056 3056 3056 3057
3100 3099 3098 3097 3096 3095 3093 3092 3091 3090 3089 3088 3087 3086 3085 3084 3082 3081 3080 3079 3078 3077 3075 3074 3072 3071 3069 3067 3066 3064 3062 3061 3059 3057 3056 3054 3053 3051 3050 3050 3049 3049 3049 3049 3049 3049 3049 3048 3048 3047 3047 3047 3046 3045 3044 3044 3043 3043 3042 3043 3043 3043 3044 3045 3045 3045 3045 3045 3044 3044 3044 3045 3046 3047 3047 3048 3050 3051 3051 3052 3052 3053 3053 3053 3054
3098 3097 3096 3094 3093 3092 3091 3090 3089 3088 3087 3086 3085 3084 3083 3082 3080 3079 3078 3077 3076 3075 3073 3072 3071 3069 3067 3065 3064 3062 3061 3059 3057 3055 3054 3052 3051 3049 3048 3047 3046 3046 3046 3046 3046 3046 3046 3045 3045 3045 3045 3045 3044 3043 3042 3041 3041 3041 3040 3040 3040 3040 3041 3042 3043 3043 3043 3042 3042 3042 3042 3043 3044 3045 3045 3046 3048 3048 3049 3049 3050 3050 3051 3051 3051
3096 3095 3094 3093 3091 3090 3089 3088 3087 3086 3085 3083 3083 3082 3081 3079 3078 3077 3076 3075 3074 3073 3071 3070 3069 3067 3065 3063 3062 3060 3059 3057 3055 3054 3052 3050 3049 3047 3046 3044 3044 3043 3043 3043 3043 3043 3043 3042 3042 3043 3042 3042 3042 3041 3040 3039 3039 3038 3037 3037 3037 3037 3038 3039 3040 3040 3041 3041 3040 3040 3041 3042 3043 3043 3044 3045 3046 3047 3047 3047 3048 3048 3048 3049 3049
3094 3093 3091 3090 3089 3088 3087 3086 3085 3084 3082 3081 3080 3080 3079 3077 3076 3075 3074 3073 3072 3071 3070 3068 3067 3066 3064 3062 3060 3059 3057 3056 3054 3052 3051 3049 3047 3045 3044 3043 3042 3041 3041 3040 3040 3040 3040 3040 3040 3040 3039 3039 3039 3039 3038 3037 3036 3036 3035 3035 3034 3035 3035 3036 3037 3038 3039 3039 3039 3039 3040 3041 3041 3042 3043 3044 3044 3045 3045 3046 3046 3046 3046 3047 3047
3092 3090 3089 3088 3087 3086 3085 3084 3082 3081 3080 3079 3078 3077 3076 3075 3074 3073 3072 3071 3070 3069 3068 3066 3065 3063 3062 3060 3058 3056 3055 3054 3052 3050 3049 3047 3046 3044 3043 3041 3040 3039 3038 3038 3037 3037 3037 3037 3037 3037 3037 3037 3037 3036 3036 3035 3034 3033 3033 3032 3032 3033 3033 3034 3035 3036 3037 3037 3037 3037 3038 3040 3040 3041 3042 3043 3043 3044 3044 3044 3044 3044 3044 3045 3045
3089 3088 3087 3086 3085 3083 3082 3081 3080 3079 3078 3077 3076 3075 3074 3073 3072 3071 3070 3069 3068 3067 3065 3064 3063 3061 3060 3058 3057 3055 3053 3052 3050 3049 3047 3046 3045 3043 3042 3040 3039 3038 3037 3036 3035 3035 3034 3034 3034 3034 3034 3034 3034 3034 3033 3033 3032 3031 3031 3030 3031 3031 3031 3032 3032 3033 3034 3035 3036 3036 3037 3038 3039 3040 3041 3042 3042 3042 3042 3042 3042 3042 3042 3042 3042
3087 3086 3085 3084 3082 3081 3080 3079 3078 3077 3076 3075 3074 3073 3072 3071 3070 3068 3067 3066 3065 3064 3063 3062 3060 3059 3057 3056 3055 3053 3052 3050 3049 3047 3046 3045 3043 3042 3041 3039 3038 3036 3035 3034 3033 3032 3032 3031 3031 3031 3031 3031 3031 3031 3031 3030 3030 3029 3029 3029 3029 3030 3030 3030 3030 3031 3032 3033 3034 3035 3035 3036 3038 3039 3040 3040 3041 3041 3041 3041 3041 3041 3041 3041 3041
3085 3084 3083 3082 3080 3079 3078 3077 3075 3074 3073 3072 3071 3070 3069 3069 3068 3066 3065 3064 3063 3062 3061 3060 3058 3057 3055 3054 3053 3052 3050 3049 3047 3046 3045 3043 3042 3040 3039 3038 3036 3035 3034 3033 3031 3030 3030 3029 3029 3028 3028 3029 3029 3029 3029 3028 3028 3028 3027 3028 3028 3028 3028 3028 3029 3030 3031 3032 3033 3033 3034 3035 3036 3037 3038 3039 3039 3040 3040 3040 3040 3040 3040 3040 3040
3083 3081 3080 3079 3078 3077 3076 3075 3073 3072 3071 3070 3069 3068 3067 3066 3065 3064 3063 3062 3061 3059 3058 3057 3056 3054 3053 3052 3051 3050 3048 3047 3045 3044 3043 3042 3040 3039 3037 3036 3035 3034 3033 3031 3030 3029 3028 3027 3026 3026 3026 3026 3026 3026 3026 3026 3026 3026 3026 3026 3027 3027 3027 3028 3028 3028 3029 3030 3031 3032 3032 3033 3034 3035 3036 3036 3037 3038 3038 3039 3039 3039 3039 3039 3039
3080 3079 3078 3077 3076 3074 3073 3072 3071 3070 3069 3068 3066 3065 3064 3063 3063 3062 3061 3059 3058 3057 3056 3055 3053 3052 3051 3050 3049 3047 3046 3044 3043 3042 3041 3040 3038 3037 3035 3034 3033 3032 3031 3030 3029 3027 3026 3025 3024 3023 3023 3023 3023 3024 3024 3024 3025 3025 3025 3025 3025 3026 3026 3027 3027 3027 3027 3027 3029 3029 3030 3031 3031 3032 3033 3034 3035 3035 3036 3037 3037 3038 3038 3039 3039
3078 3077 3075 3074 3073 3072 3071 3069 3068 3067 3066 3065 3064 3063 3062 3061 3060 3059 3058 3057 3055 3054 3053 3052 3051 3050 3049 3048 3046 3045 3044 3042 3041 3040 3039 3038 3036 3035 3034 3032 3031 3030 3029 3028 3027 3026 3024 3023 3022 3021 3021 3021 3021 3021 3021 3022 3023 3023 3023 3023 3023 3024 3024 3025 3025 3025 3025 3026 3026 3027 3028 3029 3029 3030 3031 3032 3032 3033 3034 3035 3035 3036 3037 3038 3038
3075 3074 3073 3072 3071 3069 3068 3067 3066 3065 3064 3063 3062 3061 3060 3058 3057 3056 3055 3054 3053 3051 3050 3050 3049 3047 3046 3045 3044 3042 3041 3040 3038 3037 3036 3035 3034 3033 3032 3030 3029 3028 3027 3026 3025 3024 3023 3021 3020 3019 3019 3018 3018 3018 3019 3020 3020 3021 3020 3020 3021 3021 3022 3022 3022 3022 3023 3024 3025 3025 3026 3026 3027 3027 3028 3029 3030 3030 3031 3032 3033 3034 3035 3036 3037
3072 3071 3070 3069 3068 3067 3066 3064 3063 3062 3061 3060 3059 3058 3057 3056 3055 3054 3053 3052 3050 3049 3048 3047 3046 3044 3043 3043 3042 3040 3038 3037 3036 3035 3034 3033 3031 3030 3029 3028 3027 3026 3025 3024 3023 3022 3021 3020 3019 3017 3017 3016 3016 3016 3016 3017 3018 3018 3018 3018 3019 3019 3020 3020 3020 3020 3021 3022 3022 3023 3023 3024 3024 3025 3026 3027 3028 3028 3029 3030 3031 3032 3033 3034 3035
3069 3068 3067 3066 3065 3064 3063 3062 3060 3059 3058 3057 3056 3055 3054 3054 3053 3052 3050 3049 3048 3046 3045 3044 3043 3041 3040 3039 3038 3037 3036 3035 3033 3032 3031 3030 3028 3027 3026 3025 3024 3023 3022 3022 3021 3020 3019 3018 3017 3016 3015 3014 3014 3014 3014 3015 3015 3016 3016 3016 3017 3017 3018 3018 3017 3017 3018 3019 3019 3020 3020 3021 3022 3022 3024 3025 3025 3026 3027 3028 3029 3030 3031 3032 3033
3066 3065 3065 3064 3062 3061 3060 3059 3058 3057 3056 3055 3054 3053 3052 3051 3050 3049 3048 3047 3045 3044 3042 3041 3040 3038 3037 3036 3034 3034 3033 3032 3030 3029 3028 3027 3025 3024 3023 3022 3021 3020 3019 3019 3019 3018 3017 3016 3016 3014 3013 3012 3012 3012 3012 3013 3013 3014 3015 3015 3015 3016 3016 3016 3015 3016 3016 3016 3016 3016 3017 3018 3019 3020 3021 3022 3023 3024 3025 3026 3027 3028 3029 3030 3031
3063 3062 3061 3060 3059 3058 3057 3056 3055 3054 3053 3052 3051 3050 3049 3048 3047 3046 3045 3044 3043 3042 3040 3038 3037 3035 3034 3033 3032 3030 3029 3028 3027 3026 3025 3024 3023 3021 3020 3019 3018 3017 3016 3016 3016 3016 3015 3015 3014 3013 3011 3010 3010 3010 3010 3011 3011 3012 3013 3013 3013 3014 3014 3014 3014 3014 3014 3014 3014 3014 3014 3015 3016 3017 3018 3020 3021 3022 3023 3024 3025 3026 3027 3029 3030
3059 3059 3058 3057 3056 3055 3054 3053 3052 3051 3050 3049 3048 3047 3046 3045 3044 3043 3041 3041 3040 3039 3038 3036 3034 3033 3031 3030 3029 3027 3026 3025 3024 3023 3022 3021 3020 3019 3017 3016 3015 3014 3014 3014 3013 3013 3013 3013 3012 3011 3010 3008 3008 3008 3008 3009 3009 3010 3010 3011 3011 3011 3011 3012 3012 3012 3012 3012 3012 3012 3013 3014 3015 3016 3017 3018 3019 3020 3021 3022 3024 3025 3026 3027 3028
3056 3055 3055 3054 3053 3052 3051 3050 3049 3048 3047 3046 3045 3044 3043 3042 3041 3039 3038 3037 3036 3035 3034 3033 3032 3030 3029 3027 3026 3024 3023 3022 3021 3020 3019 3018 3017 3016 3014 3013 3011 3010 3010 3010 3010 3010 3010 3011 3010 3009 3008 3007 3006 3006 3007 3007 3007 3007 3008 3008 3008 3009 3009 3009 3009 3010 3010 3011 3011 3011 3012 3013 3013 3014 3016 3017 3018 3019 3020 3021 3022 3023 3025 3026 3027
3053 3052 3051 3050 3049 3048 3048 3047 3045 3044 3043 3042 3042 3041 3040 3039 3038 3036 3035 3034 3033 3032 3031 3030 3029 3028 3026 3025 3023 3021 3020 3019 3018 3017 3016 3015 3014 3012 3011 3010 3009 3007 3006 3006 3006 3007 3008 3009 3008 3008 3006 3005 3004 3004 3005 3005 3005 3006 3006 3006 3006 3006 3007 3007 3007 3008 3008 3009 3009 3010 3011 3012 3013 3013 3015 3016 3017 3018 3019 3020 3021 3022 3024 3025 3026
3050 3049 3048 3047 3046 3045 3044 3043 3042 3041 3040 3039 3039 3038 3037 3036 3034 3033 3032 3031 3030 3028 3027 3026 3025 3024 3023 3021 3020 3018 3017 3015 3014 3014 3013 3011 3010 3009 3008 3007 3006 3005 3004 3003 3003 3004 3005 3006 3006 3006 3005 3004 3003 3003 3003 3003 3004 3004 3004 3004 3004 3005 3005 3005 3006 3006 3007 3008 3008 3009 3010 3011 3012 3013 3014 3015 3016 3017 3018 3019 3020 3021 3022 3024 3025
3046 3045 3044 3043 3043 3042 3041 3040 3038 3037 3037 3036 3035 3035 3034 3032 3031 3030 3029 3028 3027 3025 3024 3023 3022 3021 3019 3018 3016 3015 3013 3012 3011 3010 3009 3008 3007 3006 3005 3004 3003 3002 3001 3000 3000 3001 3002 3003 3003 3003 3003 3002 3001 3001 3001 3001 3002 3002 3002 3003 3003 3003 3003 3004 3004 3005 3006 3006 3007 3008 3009 3010 3011 3012 3013 3014 3015 3016 3017 3018 3019 3020 3021 3022 3023
3043 3042 3041 3040 3039 3038 3037 3036 3035 3034 3034 3033 3032 3031 3030 3029 3028 3027 3026 3025 3024 3022 3021 3020 3019 3018 3016 3014 3012 3011 3010 3009 3008 3007 3006 3004 3003 3002 3002 3001 3000 2999 2997 2997 2997 2997 2998 2999 3000 3001 3001 3000 3000 2999 2999 3000 3000 3000 3001 3001 3002 3002 3002 3003 3003 3004 3005 3005 3006 3007 3008 3009 3010 3011 3012 3013 3013 3014 3015 3016 3018 3019 3020 3021 3022
3039 3038 3037 3037 3036 3035 3034 3033 3032 3032 3031 3030 3029 3028 3027 3026 3025 3024 3023 3021 3020 3019 3018 3017 3016 3014 3012 3010 3008 3007 3006 3006 3005 3003 3002 3001 3000 2999 2998 2998 2997 2996 2994 2993 2993 2994 2995 2996 2997 2998 2999 2999 2998 2998 2998 2998 2998 2999 2999 3000 3000 3001 3001 3002 3002 3002 3003 3004 3005 3006 3006 3007 3008 3009 3010 3011 3012 3013 3014 3015 3016 3018 3019 3020 3021
3036 3035 3034 3033 3032 3032 3031 3030 3029 3028 3028 3027 3026 3025 3024 3023 3021 3020 3019 3018 3017 3015 3014 3013 3012 3010 3009 3007 3005 3003 3002 3002 3001 3000 2998 2997 2997 2996 2995 2995 2994 2993 2991 2990 2990 2991 2992 2993 2994 2995 2996 2996 2996 2996 2996 2996 2996 2997 2997 2998 2998 2999 3000 3000 3001 3001 3002 3002 3003 3004 3005 3006 3007 3008 3009 3010 3011 3012 3013 3014 3015 3016 3017 3018 3019
3032 3031 3031 3030 3029 3028 3028 3027 3026 3025 3024 3023 3022 3021 3020 3019 3018 3017 3016 3014 3013 3012 3011 3009 3008 3007 3005 3003 3001 3000 2999 2998 2997 2996 2995 2994 2993 2993 2992 2991 2991 2990 2989 2988 2987 2988 2988 2989 2990 2991 2992 2993 2994 2995 2995 2995 2995 2995 2995 2996 2996 2997 2998 2998 2999 3000 3000 3001 3002 3002 3003 3004 3005 3006 3007 3008 3009 3010 3011 3012 3013 3014 3015 3016 3017
3028 3028 3027 3026 3026 3025 3024 3023 3023 3022 3021 3020 3019 3018 3017 3016 3015 3014 3012 3011 3009 3008 3007 3006 3004 3003 3001 2999 2998 2996 2995 2994 2993 2992 2991 2990 2990 2989 2989 2988 2987 2986 2986 2985 2984 2984 2985 2985 2986 2987 2988 2990 2991 2992 2993 2993 2993 2993 2993 2994 2994 2995 2996 2996 2997 2998 2998 2999 3000 3001 3002 3002 3003 3004 3005 3006 3007 3008 3009 3010 3011 3012 3013 3014 3015
3024 3024 3023 3023 3022 3021 3021 3020 3019 3018 3017 3016 3016 3015 3014 3013 3012 3010 3009 3007 3006 3004 3003 3002 3000 2998 2997 2995 2994 2992 2991 2991 2990 2989 2988 2987 2986 2985 2985 2984 2983 2982 2982 2982 2981 2981 2981 2982 2983 2984 2985 2986 2988 2989 2990 2990 2991 2991 2991 2991 2992 2992 2993 2994 2995 2995 2996 2997 2998 2999 3000 3001 3001 3002 3003 3004 3005 3006 3007 3008 3008 3009 3011 3012 3013
3020 3020 3019 3019 3018 3018 3017 3016 3015 3014 3014 3013 3012 3011 3011 3009 3008 3006 3005 3003 3002 3000 2999 2998 2996 2994 2993 2991 2990 2989 2988 2987 2987 2986 2984 2983 2982 2981 2980 2979 2979 2978 2978 2978 2978 2978 2979 2979 2980 2981 2982 2983 2984 2985 2986 2987 2988 2988 2989 2989 2990 2990 2990 2991 2992 2993 2994 2995 2995 2997 2998 2999 3000 3001 3002 3003 3003 3004 3005 3005 3006 3007 3008 3010 3011
3015 3015 3015 3014 3014 3013 3013 3012 3011 3011 3010 3009 3008 3008 3007 3005 3004 3002 3001 2999 2998 2996 2995 2994 2992 2991 2989 2988 2987 2985 2985 2984 2983 2982 2981 2980 2978 2977 2976 2975 2975 2975 2975 2975 2975 2976 2976 2976 2977 2977 2978 2980 2981 2982 2983 2983 2984 2985 2986 2986 2987 2987 2987 2988 2989 2990 2991 2992 2993 2994 2995 2996 2997 2998 2999 3000 3001 3002 3003 3004 3005 3005 3006 3007 3009
3011 3011 3010 3010 3010 3009 3009 3008 3007 3006 3006 3005 3004 3004 3003 3001 3000 2998 2997 2995 2994 2993 2991 2990 2989 2987 2986 2985 2984 2983 2982 2981 2980 2979 2978 2977 2975 2974 2973 2972 2971 2971 2970 2971 2972 2972 2972 2973 2973 2974 2975 2976 2977 2978 2979 2980 2981 2982 2983 2983 2984 2984 2985 2985 2986 2987 2987 2988 2989 2991 2992 2993 2994 2996 2996 2997 2998 3000 3001 3001 3002 3003 3004 3005 3007
3006 3006 3006 3005 3005 3004 3004 3004 3003 3002 3002 3001 3000 3000 2999 2997 2996 2994 2993 2991 2990 2989 2988 2986 2985 2984 2983 2982 2981 2980 2979 2978 2977 2976 2975 2974 2972 2971 2970 2969 2969 2968 2968 2968 2968 2969 2969 2970 2970 2971 2971 2972 2972 2973 2974 2975 2976 2978 2979 2980 2981 2981 2982 2982 2983 2983 2984 2985 2986 2987 2988 2990 2991 2992 2994 2995 2996 2997 2998 2999 3000 3001 3002 3003 3005
3001 3001 3001 3000 3000 3000 2999 2999 2999 2998 2998 2997 2996 2996 2995 2993 2992 2990 2988 2987 2987 2986 2984 2983 2982 2981 2979 2979 2978 2977 2976 2975 2974 2973 2972 2971 2970 2968 2967 2967 2966 2966 2966 2965 2965 2966 2966 2967 2967 2967 2968 2968 2969 2969 2970 2971 2972 2974 2975 2977 2978 2978 2979 2979 2980 2981 2981 2982 2983 2984 2985 2987 2988 2989 2990 2992 2993 2994 2995 2996 2997 2998 3000 3001 3003
2997 2996 2995 2995 2995 2995 2995 2994 2994 2994 2994 2993 2992 2991 2990 2989 2987 2986 2985 2984 2983 2982 2981 2980 2979 2977 2976 2975 2975 2974 2973 2972 2971 2970 2969 2968 2967 2966 2965 2964 2964 2963 2963 2963 2962 2962 2963 2963 2964 2964 2964 2965 2965 2965 2966 2967 2968 2969 2971 2973 2974 2975 2976 2977 2978 2978 2979 2980 2981 2982 2983 2984 2985 2986 2987 2989 2990 2991 2993 2994 2995 2996 2998 2999 3001